Regional Weather Roundup
Issued by NWS

Home | Current Version | Previous Version | Graphics & Text | Print | Product List | Glossary Off
Versions: 1 2 3 4 5 6 7 8 9 10 11 12 13 14 15 16 17 18 19 20 21 22 23 24 25 26 27 28 29 30 31 32 33 34 35 36 37 38 39 40 41 42 43 44 45 46 47 48 49 50

000
ASUS43 KMPX 110910
RWRMN
WEATHER ROUNDUP FOR MINNESOTA
NATIONAL WEATHER SERVICE TWIN CITIES/CHANHASSEN MN
300 AM CST THU FEB 11 2016


NOTE: "FAIR" INDICATES FEW OR NO CLOUDS BELOW 12,000 FEET WITH NO
SIGNIFICANT WEATHER AND/OR OBSTRUCTIONS TO VISIBILITY. N/A MEANS
CURRENT SKY AND/OR WEATHER CONDITIONS ARE NOT AVAILABLE.

MNZ060>063-068>070-111000-
   Twin Cities Metro

CITY           SKY/WX    TMP DP  RH WIND       PRES   REMARKS
TWIN CITIES    PTCLDY     6  -4  63 CALM      30.29R
ST PAUL        PTCLDY     5  -3  69 CALM      30.31R
CRYSTAL        PTCLDY     2  -5  72 N3        30.28R
BLAINE         PTCLDY     1  -4  78 CALM      30.28R
LAKEVILLE      CLOUDY     0  -4  85 W3        30.28R
EDEN PRAIRIE   CLOUDY     4  -5  66 W3        30.28R
SOUTH ST PAUL  PTCLDY     3  -4  72 CALM      30.29S
LAKE ELMO      FAIR      -2  -6  84 CALM      30.29R
$$
MNZ001>005-007-008-013>017-022>024-027-028-111000-
   Northwest Minnesota

CITY           SKY/WX    TMP DP  RH WIND       PRES   REMARKS
BEMIDJI        CLOUDY   -16 -21  80 CALM      30.24S
HALLOCK        CLOUDY    -8 -11  84 E3        30.29S
ROSEAU         CLOUDY   -17 -22  76 CALM      30.27R HAZE
WARROAD        CLOUDY   -11 -17  77 CALM      30.26S
THIEF RVR FALL CLOUDY    -8 -20  54 CALM      30.27S
CROOKSTON      PTCLDY     0  -6  78 E3        30.30S
FOSSTON        PTCLDY   -15 -20  76 CALM      30.26R
DETROIT LAKES  PTCLDY     0  -6  78 CALM      30.25R
MOORHEAD       PTCLDY     1  -2  85 CALM      30.29R
PARK RAPIDS    CLOUDY    -8 -14  74 CALM      30.23R
MAHNOMEN       FAIR      -7 -12  80 E3        30.26R
$$
MNZ006-009>011-018-025>026-111000-
   North Central Minnesota

CITY           SKY/WX    TMP DP  RH WIND       PRES   REMARKS
BAUDETTE       CLOUDY   -17 -24  70 CALM      30.23F
FLAG ISLAND    CLOUDY    -6 -11  77 CALM      30.24F
INTL FALLS     CLOUDY   -13 -19  75 CALM      30.24R
WASKISH        CLOUDY   -18 -24  76 CALM      30.24F
LONGVILLE      CLOUDY   -15 -20  76 CALM      30.24S
GRAND RAPIDS   CLOUDY   -15 -20  76 CALM      30.22S
CRANE LAKE     CLOUDY   -20 -26  76 CALM      30.26F
ORR            CLOUDY   -18 -26  69 CALM      30.19S
COOK           PTCLDY   -26 -31  75 CALM      30.22S
WALKER         FAIR     -15 -19  79 CALM      30.24S
$$
MNZ012-019>021-037-111000-
   Northeast Minnesota

CITY           SKY/WX    TMP DP  RH WIND       PRES   REMARKS
DULUTH         CLOUDY    -7 -13  75 NW5       30.20R WCI -18
ELY            CLOUDY   -24 -29  76 CALM      30.19F
HIBBING        PTCLDY   -22 -27  77 CALM      30.22S
EVELETH        PTCLDY   -17 -24  70 CALM      30.23R
DULUTH HARBOR  CLOUDY     1  -8  66 W9        30.31R WCI -14
TWO HARBORS    CLOUDY    -4 -11  71 CALM      30.20S
SILVER BAY     PTCLDY   -11 -17  77 CALM      30.20S
GRAND MARAIS     N/A    -11 -16  78 N5        30.25R WCI -23
G MARAIS ARPRT CLEAR     -9 -15  77 NW6       30.09S WCI -23
$$
MNZ029>031-032-039>041-046>048-054>057-064-111000-
   West Central Minnesota

CITY           SKY/WX    TMP DP  RH WIND       PRES   REMARKS
FERGUS FALLS   CLOUDY     3   0  85 CALM      30.30R
WHEATON        CLOUDY     3   0  85 CALM      30.30S
MORRIS         PTCLDY     0  -2  92 W5        30.27R WCI -10
ALEXANDRIA     CLOUDY     4  -6  63 SE3       30.24R
ELBOW LAKE     FAIR       5   2  87 CALM      30.26R
WADENA         PTCLDY    -6  -9  84 CALM      30.23S
GLENWOOD       CLOUDY     3  -4  72 CALM      30.25R
APPLETON       CLOUDY     1  -2  85 CALM      30.29R
BENSON         CLOUDY     1   0  92 CALM      30.27R
ORTONVILLE     CLOUDY     3   0  85 CALM      30.27R
MADISON        CLOUDY     3   0  85 NW3       30.28S
WILLMAR        FAIR       7   1  78 CALM      30.28R
$$
MNZ033>034-036-042>043-049>051-058-059-111000-
   Central Minnesota

CITY           SKY/WX    TMP DP  RH WIND       PRES   REMARKS
ST CLOUD       PTCLDY     1  -5  75 CALM      30.27R
SAUK CENTRE    FAIR      -2  -6  84 SW3       30.25R
PAYNESVILLE    CLOUDY     4  -4  72 CALM      30.26S
AITKIN         PTCLDY   -13 -20  70 CALM      30.25R
PINE RIVER     CLOUDY   -11 -17  77 CALM      30.28R
BRAINERD       CLOUDY   -11 -14  86 CALM      30.27R
STAPLES        PTCLDY    -8 -11  84 CALM      30.25R
LONG PRAIRIE   FAIR       0  -8  71 CALM      30.24F
LITTLE FALLS   CLOUDY    -6  -9  84 CALM      30.28R
LITCHFIELD     PTCLDY     3   0  85 CALM      30.28R
BUFFALO        CLOUDY     1  -3  81 CALM      30.30R
MAPLE LAKE     CLOUDY     2  -2  82 CALM      30.29R
$$
MNZ037-044-045-052-053-111000-
   East Central Minnesota

CITY           SKY/WX    TMP DP  RH WIND       PRES   REMARKS
PRINCETON      PTCLDY     0  -6  78 CALM      30.27S
MORA           CLOUDY    -6 -11  77 CALM      30.30R
CAMBRIDGE      CLOUDY    -6 -11  77 CALM      30.27R
RUSH CITY      CLOUDY    -2  -9  73 CALM      30.29R
MOOSE LAKE     PTCLDY   -13 -18  77 CALM      30.25S
HINCKLEY       FAIR      -6  -9  84 NW3       30.28R
CLOQUET        PTCLDY    -9 -15  77 CALM      30.23R
MCGREGOR       PTCLDY    -9 -15  77 CALM      30.26R
$$
MNZ071>073-080-081-089-090-097-098-111000-
   Southwest Minnesota

CITY           SKY/WX    TMP DP  RH WIND       PRES   REMARKS
MONTEVIDEO     CLOUDY     3   0  85 NW3       30.29S
GRANITE FALLS  CLOUDY     0  -4  85 CALM      30.29S
CANBY          CLOUDY     5   2  88 NW3       30.29R
MARSHALL       PTCLDY     5   1  83 W5        30.28R WCI  -4
REDWOOD FALLS  CLOUDY     5   1  83 CALM      30.28S
OLIVIA         PTCLDY     9   3  78 CALM      30.27R
PIPESTONE      CLOUDY    14   3  62 CALM      30.20
WINDOM         CLOUDY     0  -4  85 CALM      30.24S
WORTHINGTON    CLOUDY     9   1  72 NE3       30.23S
JACKSON        CLOUDY     3  -2  78 VRB5      30.24S WCI  -6
TRACY          CLOUDY     6   3  88 CALM      30.25S
SLAYTON        MOCLDY     8   6  93 CALM      30.23S
$$
MNZ065>067-074>077-082>085-091>093-111000-
   South Central Minnesota

CITY           SKY/WX    TMP DP  RH WIND       PRES   REMARKS
MANKATO        CLOUDY     5  -2  72 CALM      30.26F
NEW ULM        CLOUDY     1  -4  78 CALM      30.27F
ST JAMES       CLOUDY     1   0  92 CALM      30.28S
FAIRMONT       CLOUDY     3  -2  78 CALM      30.25R
GLENCOE        CLOUDY     3   0  86 CALM      30.28S
FARIBAULT        N/A     -6  -8  92 CALM      30.27S
OWATONNA       CLOUDY     0  -6  78 CALM      30.26R
WASECA         CLOUDY     1  -6  71 CALM      30.28S
ALBERT LEA     CLOUDY     0  -4  85 CALM      30.25S
$$
MNZ078>079-086>088-094>096-111000-
   Southeast Minnesota

CITY           SKY/WX    TMP DP  RH WIND       PRES   REMARKS
ROCHESTER      PTCLDY     1  -6  72 W6        30.24R WCI -10
RED WING       PTCLDY    -2  -8  78 VRB3      30.28S
STANTON        CLOUDY    -3  -7  80 S3        30.27R
DODGE CENTER   CLOUDY     0  -8  71 CALM      30.24R
WINONA         CLOUDY     3  -2  78 CALM      30.30R
AUSTIN         PTCLDY     0  -4  85 N3        30.24S
PRESTON        CLOUDY     2  -5  70 NW6       30.24R WCI  -9
$$
ABBREVIATIONS USED IN REMARKS
   TC - TEMPERATURES IN CELSIUS
  WCI - WIND CHILL INDEX
   HX - HEAT INDEX
  VSB - VISIBILITY
$$



USA.gov is the U.S. government's official web portal to all federal, state and local government web resources and services.